sat.trackr.live / text

‹ back to catalog

NPSAT1

NORAD 44340 · 2019-036B

PAYLOAD ACTIVE UNKNOWN

§ Identity

Operator
Country
US
Launch date
2019-06-25
Launch site
AFETR
Launch vehicle
Mass (kg)
RCS (m²)

External: N2YO · Heavens-Above · Gunter

§ Orbital elements

Epoch: 2026-09-20T04:06:57.808224Z

Period
97.61 min
Inclination
24.0001°
Eccentricity
0.0007016
Mean motion
14.75316170 rev/d
Perigee alt
639.2 km
Apogee alt
649.1 km
Semi-major
7,022.3 km
B*
4.4357e-4
RAAN
318.7555°
Arg perigee
200.7282°
Mean anomaly
159.2930°
Rev number
38,653

§ Raw data

NPSAT11 44340U 19036B   26263.17150241  .00003323  00000+0  44357-3 0  99902 44340  24.0001 318.7555 0007016 200.7282 159.2930 14.75316170386532

JSON: /api/v1/satellites/44340 · /tle

For live sub-satellite position, see the globe view (requires WebGL).

§ Visibility from observer

Set your observer location to see the next 7 days of passes ≥ 10°. The values pass through the URL so the page stays shareable.

No JS? Fill the form by hand. The geolocation button needs JavaScript.

§ Radio — SatNOGS DB

ModeDescriptionDownlinkUplink
CERTO CERTO 2 400.032 MHz

1 transmitter · refreshed weekly from db.satnogs.org